Flag for Germany Weather for the Past 2 Weeks in Sundern (Sauerland), North Rhine-Westphalia, Germany

Now
54 °F

Sunny.


Feels Like: 49 °F
Forecast: 33 / 56 °F
Wind: 18 mph from North

Location: Dortmund / Wickede

Current Time: May 3, 2016 at 6:53:04 PM

Latest Report: May 3, 2016 at 6:20 PM


Visibility: 10 mi

Pressure: 30.24 "Hg

Humidity: 41%

Dew Point: 30 °F

Location of Sundern (Sauerland)Location

Historic Weather in Sundern (Sauerland) — Graph

°F

Sundern (Sauerland) Temperature Yesterday

Maximum temperature yesterday: 66 °F (at 4:50 PM)
Minimum temperature yesterday: 37 °F (at 6:20 AM)
Average temperature yesterday: 57 °F

High & Low Weather Summary for the Past Weeks

 TemperatureHumidityPressure
High66 °F (May 2, 4:50 PM)93% (Apr 20, 7:20 AM)30.48 "Hg (Apr 20, 7:20 AM)
Low32 °F (Apr 20, 5:50 AM)32% (May 2, 3:20 PM)29.45 "Hg (Apr 26, 1:50 PM)
Average46 °F65%30.02 "Hg
* Reported Apr 18 5:20 PM — May 3 5:20 PM, Sundern (Sauerland), Weather by CustomWeather, © 2016

Note: Actual official high and low records may vary slightly from our data, if they occured in-between our weather recording intervals... More about our weather records

Advertising

Sundern (Sauerland) Weather History for the Previous 24 Hours

Scroll right to see more
 ConditionsComfort  
Time TempWeatherWind HumidityBarometerVisibility
5:20 PM
Tue, May 3
55 °FPassing clouds.16 mph38%30.21 "HgN/A
4:50 PM55 °FPassing clouds.16 mph38%30.21 "HgN/A
4:20 PM55 °FSunny.16 mph41%30.21 "Hg10 mi
3:50 PM55 °FPassing clouds.15 mph38%30.21 "HgN/A
3:20 PM57 °FPassing clouds.15 mph44%30.18 "HgN/A
2:50 PM54 °FScattered clouds.15 mph47%30.18 "HgN/A
2:20 PM55 °FScattered clouds.13 mph47%30.18 "HgN/A
1:20 PM52 °FScattered showers. Scattered clouds.9 mph58%30.18 "HgN/A
12:50 PM52 °FScattered clouds.13 mph62%30.18 "HgN/A
12:20 PM54 °FScattered clouds.12 mph58%30.15 "HgN/A
11:50 AM54 °FScattered clouds.12 mph67%30.15 "HgN/A
11:20 AM52 °FScattered clouds.12 mph62%30.15 "HgN/A
10:50 AM50 °FScattered clouds.9 mph71%30.15 "HgN/A
10:20 AM48 °FScattered clouds.9 mph76%30.15 "HgN/A
9:50 AM46 °FScattered showers. Scattered clouds.10 mph82%30.15 "HgN/A
9:20 AM46 °FScattered showers. Broken clouds.9 mph87%30.12 "HgN/A
8:50 AM46 °FScattered showers. Partly sunny.8 mph82%30.12 "HgN/A
8:20 AM45 °FLight rain. Partly sunny.9 mph87%30.09 "HgN/A
7:50 AM46 °FLight rain. Partly sunny.16 mph82%30.09 "Hg5 mi
7:20 AM50 °FSprinkles. Partly sunny.7 mph82%30.07 "Hg4 mi
6:50 AM50 °FScattered showers. Passing clouds.8 mph76%30.07 "HgN/A
5:50 AM50 °FPassing clouds.6 mph71%30.04 "HgN/A
5:20 AM52 °FPassing clouds.7 mph72%30.07 "HgN/A
9:50 PM
Mon, May 2
50 °FSunny.5 mph67%30.09 "Hg10 mi
9:20 PM55 °FSunny.3 mph59%30.09 "Hg10 mi
8:50 PM55 °FSunny.6 mph63%30.09 "Hg10 mi
8:20 PM57 °FSunny.6 mph59%30.09 "Hg10 mi
7:50 PM59 °FSunny.1 mph59%30.09 "Hg10 mi
6:50 PM63 °FSunny.3 mph45%30.09 "Hg10 mi
6:20 PM63 °FPassing clouds.5 mph52%30.12 "HgN/A
Weather by CustomWeather, © 2016

See weather overviewHow to use our weather pages